[Iaude] MPEC R36: 2023 QB10 [a=2.16,e=0.42,i=8.6,H=21.8]

mpec at marsden.cfa.harvard.edu mpec at marsden.cfa.harvard.edu
Thu Sep 7 10:49:05 EDT 2023


M.P.E.C. 2023-R36                             Issued 2023 September 7, 14:47 UT

     The Minor Planet Electronic Circulars contain information on unusual
         minor planets, routine data on comets and natural satellites,
         and occasional editorial announcements.  They are published
    on behalf of Division F of the International Astronomical Union by the
          Minor Planet Center, Smithsonian Astrophysical Observatory,
                          Cambridge, MA 02138, U.S.A.
			  
             Prepared using the Tamkin Foundation Computer Network

                              MPC at CFA.HARVARD.EDU
            URL https://www.minorplanetcenter.net/    ISSN 1523-6714

                                   2023 QB10                                    


Observations:
     K23Q10B* C2023 08 20.44144600 02 32.584-33 29 15.56         21.50wXER036F52
     K23Q10B  C2023 08 20.45043900 02 33.135-33 29 16.28         21.36wXER036F52
     K23Q10B  C2023 08 20.45950800 02 33.689-33 29 16.94         21.50wXER036F52
     K23Q10B  C2023 08 20.46853900 02 34.224-33 29 17.64         21.12wXER036F52
     K23Q10B  C2023 08 20.50940000 02 36.682-33 29 20.41         21.48wXER036F51
     K23Q10B  C2023 08 20.51862300 02 37.225-33 29 20.82         21.47wXER036F51
     K23Q10B  C2023 08 20.52744200 02 37.755-33 29 21.29         21.45GVER036F52
     K23Q10B  C2023 08 20.52787400 02 37.777-33 29 21.22         21.48wXER036F51
     K23Q10B  C2023 08 20.52807500 02 37.793-33 29 21.38         21.16GVER036F52
     K23Q10B  C2023 08 20.53709000 02 38.334-33 29 21.76         21.51wXER036F51
     K23Q10B  C2023 09 03.46033600 15 30.968-32 45 44.63         20.75iXER036F52
     K23Q10B  C2023 09 03.46927300 15 31.207-32 45 40.71         21.47iXER036F52
     K23Q10B  C2023 09 03.48705600 15 31.676-32 45 32.20         21.18iXER036F52
     K23Q10B HC2023 09 07.09382 00 17 36.94 -32 11 58.5                VER036M21
     K23Q10B KC2023 09 07.13225 00 17 37.76 -32 11 31.8          20.4 GVER036M21

Observer details:
F51 Pan-STARRS 1, Haleakala.  Observers J. Bulger, T. Lowe, P. Minguez, A.
    Schultz, I. Smith.  Measurers K. Chambers, T. de Boer, J. Bulger, J.
    Fairlamb, H. Gao, M. Huber, C.-C. Lin, T. Lowe, E. Magnier, P. Minguez, Y.
    Ramanjooloo, A. Schultz, I. Smith, R. Wainscoat, R. Weryk.  1.8-m Ritchey-
    Chretien + CCD.
F52 Pan-STARRS 2, Haleakala.  Observers J. Bulger, T. Lowe, P. Minguez, A.
    Schultz, I. Smith, K. Chambers, T. Dukes.  Measurers K. Chambers, T. de
    Boer, J. Bulger, J. Fairlamb, H. Gao, M. Huber, C.-C. Lin, T. Lowe, E.
    Magnier, P. Minguez, Y. Ramanjooloo, A. Schultz, I. Smith, R. Wainscoat,
    R. Weryk, S. Chastel.  1.8-m Ritchey-Chretien + CCD.
M21 Schiaparelli Southern Observatory, Hakos.  Observers A. Aletti, F.
    Bellini, L. Buzzi, G. Galli.  Measurer L. Buzzi.  0.36-m f/8.4 reflector +
    CCD.

Orbital elements:
2023 QB10                                                Earth MOID = 0.2703 AU
Epoch 2023 Sept. 13.0 TT = JDT 2460200.5                Bell                    
M 354.06770              (2000.0)            P               Q                  
n   0.30976282     Peri.  324.49981     +0.99122373     -0.08923017             
a   2.1632989      Node    40.96132     +0.12616406     +0.85885678             
e   0.4195010      Incl.    8.55663     -0.03947351     +0.50438380             
P   3.18           H   21.86          G   0.15           U   8                  
Residuals in seconds of arc
230820 F52  0.0   0.1-    230820 F51  0.0   0.0     230903 F52  0.0   0.1-
230820 F52  0.1+  0.1-    230820 F52  0.0   0.0     230903 F52  0.0   0.2-
230820 F52  0.1+  0.0     230820 F51  0.0   0.1+    230903 F52  0.0   0.2+
230820 F52  0.1-  0.0     230820 F52  0.0   0.1-    230907 M21  0.2-  0.0
230820 F51  0.0   0.0     230820 F51  0.1+  0.1-    230907 M21  0.2+  0.0

Ephemeris:
2023 QB10                a,e,i = 2.16, 0.42, 9                   q = 1.2558
Date    TT    R. A. (2000) Decl.     Delta      r    Elong.  Phase     V
2023 08 08    23 45 12.4 -32 50 59   0.4191  1.3664   141.2    27.7    21.9
...
2023 08 23    00 05 26.7 -33 29 32   0.3532  1.3165   145.1    26.1    21.4
...
2023 08 31    00 13 00.1 -33 07 50   0.3264  1.2953   146.9    25.2    21.2
...
2023 09 06    00 17 02.9 -32 23 08   0.3099  1.2822   148.3    24.4    21.0
2023 09 07    00 17 35.1 -32 12 57   0.3075  1.2803   148.5    24.3    21.0
2023 09 08    00 18 05.0 -32 01 55   0.3051  1.2784   148.7    24.2    20.9
...
2023 09 14    00 20 19.4 -30 36 58   0.2929  1.2686   150.2    23.2    20.8
...
2023 09 22    00 21 41.9 -27 49 45   0.2819  1.2598   152.0    22.0    20.7
...
2023 10 07    00 22 27.9 -19 56 18   0.2792  1.2567   154.1    20.3    20.6

M. P. C. Staff               (C) Copyright 2023 MPC           M.P.E.C. 2023-R36





More information about the Iaude mailing list